Tracking 29018 objects as of 14-Jun-2024
HD Live streaming from Space Station
objects crossing your sky now

OBJECT D

Track OBJECT D now!
10-day predictions


NORAD ID: 58920
Int'l Code: 2024-024D
Perigee: 493.3 km
Apogee: 507.3 km
Inclination: 97.4 °
Period: 94.5 minutes
Semi major axis: 6871 km
RCS: Unknown
Launch date: February 3, 2024
Source: (TBD)
Launch site: ()
Your satellite tracking list
Your tracking list is empty




NASA's NSSDC Master Catalog

Two Line Element Set (TLE):
1 58920U 24024D   24165.91976140  .00020845  00000-0  85533-3 0  9997
2 58920  97.3916 240.9750 0010156 181.8461 178.2740 15.24212148 20023
Source of the keplerian elements: AFSPC